Wind_Speed
38 39 38 35 34 33 30 27 24 23 21 19 16 18 22 20 17 18 17 14 14 14 10 4 5 9 13 10 10 9 8 5 5 6 11 10 11 16 15 13 11 10 8
39 36 37 37 34 34 33 32 31 27 22 21 19 19 24 23 21 21 20 17 17 16 8 6 1 15 19 14 11 10 9 9 9 6 8 9 12 17 15 12 11 8 10
38 36 36 37 36 35 35 35 31 30 27 23 22 24 25 25 25 24 23 20 18 17 14 12 9 17 20 19 15 11 10 9 9 6 6 10 13 17 13 11 10 10 9
28 28 29 31 33 35 35 35 33 30 29 27 26 26 27 27 29 27 24 25 21 18 18 18 9 12 14 24 19 13 10 7 6 7 7 12 14 15 14 13 12 12 10
13 17 22 26 25 26 29 33 32 30 31 32 32 31 29 28 28 30 31 29 26 21 18 21 12 8 15 21 21 15 12 9 9 9 8 10 13 12 16 14 12 10 10
5 14 17 18 17 19 23 27 30 31 28 29 31 32 36 37 34 31 31 29 25 23 18 17 5 1 8 15 20 17 13 14 15 14 13 15 18 17 17 15 10 8 3
11 4 14 22 22 12 14 21 26 29 27 28 30 28 32 32 32 30 29 28 26 22 21 18 13 6 2 12 17 17 15 14 13 15 16 14 14 18 18 15 11 9 6
12 16 22 29 27 18 16 19 18 19 22 29 32 30 30 32 31 29 30 31 29 28 27 28 29 19 14 18 18 21 18 15 14 13 12 12 13 13 20 17 14 9 5
10 15 20 19 20 15 12 14 9 10 12 22 22 22 25 25 27 25 23 26 31 35 30 26 20 15 18 27 24 23 20 17 13 11 8 7 5 5 11 12 12 10 3
15 18 21 20 12 13 14 13 11 9 7 9 12 16 16 15 14 19 19 23 24 23 24 21 19 14 17 23 24 26 23 20 17 14 12 10 10 9 8 8 10 12 8
11 9 11 15 13 9 11 13 11 12 16 17 16 18 16 16 13 16 20 14 17 20 25 23 18 17 19 19 20 23 23 19 17 14 16 14 13 11 11 10 10 10 7
9 7 5 5 7 9 10 10 12 13 14 14 14 15 12 14 18 23 26 19 17 26 25 22 22 20 16 16 20 21 19 18 19 18 17 15 13 12 12 11 10 10 8
2 3 4 5 8 10 12 13 11 10 12 13 13 14 12 10 7 9 15 27 22 25 22 18 17 17 13 14 18 19 18 20 22 20 17 15 14 12 10 9 11 12 12
6 6 6 6 10 11 11 10 10 6 6 8 8 7 5 7 6 10 15 19 22 19 16 15 14 12 13 16 20 20 21 22 22 20 17 12 10 9 12 14 16 13 13
1 1 2 5 9 8 6 6 7 7 4 2 5 7 4 3 2 9 17 20 19 20 19 16 14 13 16 18 21 22 22 22 20 17 15 11 8 9 11 8 12 9 10
3 1 2 3 3 5 6 8 3 4 5 5 4 3 3 3 1 6 13 15 19 20 18 13 10 10 13 21 25 26 23 22 21 17 13 9 5 3 3 12 13 11 10
4 4 4 3 2 3 6 5 7 4 5 6 6 6 4 5 5 4 6 13 15 16 14 17 19 18 15 16 21 25 26 19 15 9 8 6 6 6 11 9 9 8 7
8 7 2 3 5 5 5 5 4 10 10 11 6 4 4 4 4 3 2 5 8 13 14 11 11 10 11 13 15 20 21 23 19 13 12 9 8 14 11 9 11 9 9
10 10 5 4 4 6 4 5 8 11 11 4 4 5 5 3 3 4 2 7 7 9 11 10 9 10 13 13 14 16 18 22 21 17 11 16 14 16 10 8 6 9 11
11 10 11 13 6 10 11 10 10 12 8 4 5 5 6 7 5 6 4 4 6 7 9 11 9 8 10 11 12 14 17 19 19 18 17 13 11 8 8 6 13 12 12
7 10 10 8 8 6 9 11 14 16 10 9 8 8 8 6 6 9 7 4 4 5 6 5 7 7 6 8 12 17 18 18 15 16 21 18 16 9 6 11 9 12 9
4 6 7 6 8 9 8 9 11 11 9 11 9 13 11 8 8 10 8 7 5 5 5 4 6 5 6 10 13 17 17 16 18 22 20 14 8 12 12 12 11 9 9
4 4 5 6 7 9 11 12 13 7 6 10 11 11 12 9 9 11 12 8 7 5 5 4 5 5 6 10 14 14 15 19 23 20 11 13 13 9 13 11 9 10 9
5 3 3 4 7 8 9 8 6 10 10 9 9 11 14 13 15 14 12 11 8 6 4 4 5 6 11 10 12 14 20 15 13 11 20 12 3 12 13 11 11 9 8
5 2 3 2 3 3 4 6 7 7 11 15 12 13 14 14 15 15 15 11 10 7 6 7 7 7 11 15 18 17 10 11 15 20 15 9 8 14 14 14 12 9 8
3 5 6 4 3 5 5 6 3 3 6 6 9 14 15 14 14 13 12 12 13 10 10 11 12 15 19 16 17 13 13 14 12 14 13 14 15 17 17 15 10 9 11
Wind_Direction
225 228 230 232 232 232 236 237 236 234 234 242 253 239 229 232 231 234 235 233 236 240 242 280 310 320 303 288 260 242 235 249 242 248 230 237 228 205 200 212 211 213 223
229 229 234 237 236 235 238 241 241 242 243 240 240 237 231 235 237 239 239 237 241 253 244 222 156 312 290 277 258 252 254 256 245 223 226 218 210 202 210 217 219 238 242
225 229 234 238 240 240 238 238 239 241 244 242 240 240 236 240 241 241 244 251 252 247 236 220 229 272 269 264 250 252 255 253 247 231 207 202 200 197 207 222 231 242 261
223 228 236 242 245 247 248 248 247 243 239 240 242 242 243 247 249 247 245 248 252 253 248 229 262 268 250 257 246 243 240 241 237 202 192 185 188 199 212 221 222 237 245
226 231 232 239 252 259 259 259 257 252 250 247 244 245 244 239 240 242 245 247 250 255 248 230 256 293 246 243 245 236 230 215 209 182 183 180 193 195 208 214 234 248 251
172 227 242 241 244 262 268 267 268 265 259 259 257 257 257 254 252 249 249 244 242 237 221 203 202 346 280 248 242 249 240 217 201 192 193 200 207 214 215 210 223 228 260
154 101 4 321 306 284 294 304 272 265 263 261 262 260 261 260 258 257 252 245 234 219 210 210 190 199 305 254 234 239 229 220 225 215 214 221 227 228 215 206 221 219 233
200 251 248 237 280 318 313 306 296 280 278 290 272 264 261 265 262 257 252 247 232 222 224 231 236 201 249 235 230 226 223 215 214 208 223 238 254 259 231 225 217 212 197
216 233 238 271 282 287 302 300 298 284 264 270 277 277 270 264 257 258 246 235 225 222 222 231 242 233 225 214 201 211 211 208 203 202 202 216 219 213 206 203 189 180 192
248 249 255 250 269 300 294 295 300 309 298 288 286 271 265 248 222 219 212 212 212 225 228 244 261 252 228 204 197 203 205 209 207 200 185 174 172 168 181 202 209 189 179
207 212 233 248 265 288 289 291 290 285 278 273 270 268 260 251 242 218 213 226 241 251 244 241 238 209 198 199 202 207 217 215 204 195 183 181 181 189 197 201 202 204 193
187 208 221 237 270 282 286 285 277 279 278 284 284 283 295 286 261 246 215 245 242 234 221 211 212 213 212 200 199 208 219 213 196 186 187 190 195 207 207 208 214 215 228
266 276 281 278 282 284 281 284 291 280 276 287 284 275 271 273 285 259 229 236 238 217 198 201 194 183 187 194 199 201 210 203 194 193 198 204 216 208 208 220 229 231 233
327 333 332 328 318 309 308 299 304 312 307 300 294 293 267 252 260 237 204 188 189 192 182 174 172 180 199 191 192 200 205 201 199 201 204 209 207 227 239 246 250 245 247
77 76 351 332 348 348 339 335 309 280 269 14 16 8 339 359 286 188 181 181 182 180 168 154 153 178 195 201 200 199 201 203 206 210 216 206 227 260 241 223 245 234 233
156 250 276 277 347 10 16 4 10 74 359 22 51 67 49 4 116 169 197 193 184 181 176 178 184 198 208 211 206 199 199 200 203 200 205 205 230 182 172 210 229 222 239
174 219 245 260 112 57 69 84 142 132 130 105 66 47 68 51 69 114 188 214 219 225 228 239 249 248 237 221 214 203 200 194 181 174 181 186 146 193 212 194 196 222 217
207 222 234 210 149 116 145 114 205 214 176 163 130 62 63 32 20 35 168 209 199 214 227 231 237 235 225 217 205 206 209 203 193 186 170 170 202 208 193 192 179 198 187
226 224 271 305 250 263 263 220 243 248 249 223 142 37 348 326 335 347 183 197 219 232 236 245 243 233 224 216 214 206 200 191 190 188 205 189 218 203 188 185 187 207 189
234 250 281 311 293 279 274 255 255 253 276 317 17 356 318 308 306 318 303 247 236 233 232 236 233 228 222 214 204 198 190 183 195 202 196 199 180 155 130 213 226 201 198
247 260 279 285 298 269 293 282 260 261 285 285 328 321 308 319 272 268 271 295 283 265 251 234 224 233 234 203 193 189 185 181 178 178 160 154 155 141 168 245 202 195 209
292 286 280 276 275 284 299 312 300 264 268 280 312 332 317 295 235 250 269 292 306 267 256 256 242 235 232 213 198 186 183 186 172 163 156 154 171 187 247 213 184 188 198
301 285 277 268 268 286 293 297 272 276 286 284 284 285 288 275 246 254 266 274 291 277 242 225 228 217 185 174 182 187 186 169 166 171 191 186 192 237 187 184 191 183 196
311 270 288 277 282 289 306 323 303 273 273 272 257 258 256 258 250 250 264 254 262 266 236 228 229 198 179 182 169 170 162 169 189 189 175 180 166 170 175 177 173 174 176
325 322 349 16 219 285 282 330 348 337 291 272 268 251 244 246 246 250 266 249 254 256 232 208 204 198 191 177 164 171 185 175 171 172 191 211 202 180 176 171 169 172 165
327 313 335 331 284 283 284 273 264 348 356 337 262 252 242 242 239 252 246 238 239 227 207 200 191 176 170 174 171 182 175 169 194 210 215 199 181 176 175 168 162 165 155
Height
806 808 811 813 816 820 822 824 824 826 828 829 830 831 832 833 835 838 839 840 841 841 845 850 852 854 854 851 848 845 844 844 845 845 846 847 849 852 855 858 861 861 862
801 806 809 811 813 814 817 819 821 822 825 826 826 826 826 828 831 832 834 837 839 840 844 845 846 846 853 851 849 845 845 842 842 842 845 848 850 853 856 858 860 862 863
797 800 804 807 809 810 810 811 813 817 820 822 823 822 823 825 826 827 831 834 834 835 837 838 836 836 845 847 846 843 844 843 841 842 844 847 849 853 855 857 860 861 862
793 798 802 805 807 808 809 809 811 813 813 815 816 817 818 821 823 824 826 826 827 828 831 831 832 835 836 841 843 840 840 841 841 840 843 846 850 852 854 856 857 858 859
797 800 798 799 804 806 807 808 808 809 810 810 810 811 812 810 812 816 818 819 821 822 822 825 827 828 831 835 840 838 837 837 839 839 843 846 849 852 852 854 857 859 858
793 796 798 798 798 801 804 804 805 806 806 807 808 808 809 809 807 807 809 810 810 811 812 814 820 818 823 832 837 838 835 834 834 836 839 841 843 845 847 850 853 855 858
786 790 798 804 799 796 798 801 798 798 800 802 803 802 803 802 803 804 803 805 805 805 806 807 807 813 815 826 833 835 834 834 833 833 837 840 842 843 846 848 852 854 856
781 780 790 798 810 800 795 794 794 791 793 797 796 794 794 795 796 797 796 796 799 800 798 795 794 788 801 812 824 830 833 832 832 833 835 839 840 841 843 846 849 854 855
784 783 786 796 800 795 791 796 794 793 792 790 794 791 789 789 787 787 787 788 790 791 794 795 796 794 796 804 806 823 828 829 831 831 833 836 838 839 843 846 849 853 855
789 789 793 797 796 793 795 795 793 792 791 792 794 792 790 789 788 788 788 786 787 790 794 793 794 792 792 801 803 814 821 824 828 829 831 834 837 839 842 846 847 850 851
790 792 794 795 794 793 791 791 789 788 789 788 789 790 789 788 786 787 786 787 789 791 789 789 789 791 794 799 804 811 817 822 825 827 830 833 836 839 840 842 846 848 850
791 792 791 790 789 789 788 786 786 786 786 784 786 786 784 782 780 783 782 783 785 787 786 788 790 790 796 797 800 807 814 819 823 825 829 832 833 837 839 841 843 844 847
789 789 788 787 787 787 786 785 786 785 783 783 783 782 782 780 777 777 777 781 783 786 787 789 789 790 794 797 801 808 813 817 822 825 827 829 832 834 837 839 841 843 843
786 784 784 784 783 782 781 781 779 780 781 781 779 777 777 776 774 775 777 780 782 785 787 788 789 791 796 795 800 807 812 816 819 821 824 826 828 832 834 837 839 841 841
784 784 782 780 779 779 779 777 776 776 776 775 774 773 775 773 774 776 779 781 782 785 787 787 788 791 794 797 801 803 810 814 817 820 822 824 826 827 829 831 835 837 839
782 782 781 778 777 775 775 774 772 771 776 774 773 775 776 776 775 775 779 782 783 785 786 787 787 790 791 795 798 801 806 810 813 815 821 824 824 826 828 832 835 835 836
781 779 778 778 778 777 774 772 771 772 773 775 774 774 777 776 776 777 780 781 782 784 785 785 786 787 787 791 794 798 803 808 813 816 817 822 824 826 831 830 831 834 836
779 778 777 777 775 773 771 770 771 770 768 769 772 775 775 774 776 776 777 780 781 784 784 783 784 784 786 790 792 795 801 806 810 814 816 819 823 827 829 830 830 832 835
777 777 776 777 777 774 770 769 771 771 770 771 768 770 773 774 774 775 776 777 777 779 780 781 782 784 786 786 790 794 798 802 806 812 815 819 823 828 829 829 831 833 835
777 777 775 774 774 771 769 769 770 770 770 769 768 770 771 771 773 775 776 776 776 778 779 780 781 783 785 786 788 792 796 800 804 809 813 819 823 826 826 829 830 832 833
776 775 773 773 772 770 769 768 769 769 768 769 769 768 768 769 772 775 776 775 775 775 777 778 780 782 784 786 789 793 797 801 805 808 813 819 823 824 827 828 829 831 833
775 774 773 773 772 771 771 769 767 767 768 768 768 768 768 769 771 773 774 776 776 776 777 778 780 782 784 786 789 793 797 801 804 809 814 817 820 823 825 827 828 830 832
774 773 773 772 771 771 770 769 767 768 768 767 768 768 769 770 771 772 774 775 776 776 776 778 780 781 784 786 790 793 796 800 803 809 813 815 819 821 823 826 828 830 831
775 774 773 773 771 770 769 767 767 766 766 767 768 768 768 769 771 772 773 775 775 775 776 778 779 780 783 787 791 793 798 802 805 807 812 815 817 819 822 825 827 830 831
774 774 774 773 772 771 770 769 768 766 765 764 765 766 767 768 769 770 772 773 774 775 777 778 780 782 785 788 792 796 800 802 805 808 811 814 815 819 822 825 828 830 831
774 773 773 773 773 772 771 771 772 771 769 766 765 765 766 767 768 770 771 772 775 776 777 780 782 783 787 790 794 797 800 803 806 808 810 812 814 819 822 825 828 829 831